Simultaneous Nadir Overpasses (SNOs) Predictions

Prediction of SNOs between AQUA and NPP Satellite Orbit:

Table of predicted SNOs for the next 14.0 days since TLE Epoch: 10/26/2024
Index Date (AQUA) Time (AQUA) Lat,Lon (AQUA) SZA (AQUA ) Date (NPP) Time (NPP) Lat,Lon (NPP) SZA (NPP ) Distance(km) Time Diff (sec)
1 10/26/2024 08:56:40 81.30, -26.46 99.31 10/26/2024 08:56:40 81.30, -26.56 99.32 1.82 0
2 10/28/2024 20:09:05 81.30, 165.41 100.12 10/28/2024 20:09:07 81.30, 165.23 100.15 3.09 2
3 10/31/2024 07:21:28 81.29, -2.87 100.94 10/31/2024 07:21:33 81.30, -2.71 100.91 2.88 5
4 11/02/2024 17:44:28 -81.30, 21.62 78.34 11/02/2024 17:43:15 -81.29, 21.51 78.28 1.91 73
5 11/02/2024 18:33:47 81.31,-170.54 101.66 11/02/2024 18:33:58 81.30,-170.37 101.63 2.82 11
6 11/05/2024 04:56:46 -81.29,-146.54 77.58 11/05/2024 04:55:41 -81.29,-146.65 77.52 1.79 65
7 11/05/2024 05:46:05 81.30, 21.26 102.42 11/05/2024 05:46:24 81.30, 21.45 102.39 3.29 19
8 11/07/2024 16:09:00 -81.29, 45.52 76.87 11/07/2024 16:08:05 -81.29, 45.47 76.83 0.92 55



Historial Predications of SNOs between AQUA and NPP
